FW3613 Weather Reports


Display with metric or nautical units.
time (UTC)temp
F
wind
direction
speed
MPH
gust
MPH
rain 1hr
in
rain 24hr
in
rain mn
in
humidity
%
barometer
mb
20260901045526 64 139 0.0 1.0 0.00 0.00 0.00 51 1009.3
20260901045025 66 139 0.0 1.0 0.00 0.00 0.00 51 1009.3
20260901044538 67 132 0.0 1.0 0.00 0.00 0.00 44 1009.2
20260901044025 67 325 0.0 1.0 0.00 0.00 0.00 39 1009.0
20260901043527 66 325 0.0 1.0 0.00 0.00 0.00 39 1009.1
20260901043025 66 325 0.0 0.0 0.00 0.00 0.00 49 1009.1
20260901042527 66 325 0.0 0.0 0.00 0.00 0.00 48 1008.9
20260901042024 66 325 0.0 0.0 0.00 0.00 0.00 48 1008.9
20260901041528 66 122 0.0 0.0 0.00 0.00 0.00 52 1008.9
20260901041025 66 125 0.0 1.0 0.00 0.00 0.00 51 1008.9
20260901040524 67 127 0.0 1.0 0.00 0.00 0.00 49 1008.8
20260901040024 68 123 0.0 0.0 0.00 0.00 0.00 45 1008.9
20260901035524 68 122 0.0 0.0 0.00 0.00 0.00 44 1008.8
20260901035022 68 146 0.0 0.0 0.00 0.00 0.00 48 1008.8
20260901034532 68 146 0.0 0.0 0.00 0.00 0.00 47 1008.8
20260901034026 69 147 0.0 0.0 0.00 0.00 0.00 46 1008.8
20260901033523 69 146 0.0 0.0 0.00 0.00 0.00 46 1008.8
20260901033044 68 146 0.0 0.0 0.00 0.00 0.00 45 1008.8
20260901032523 68 146 0.0 0.0 0.00 0.00 0.00 46 1008.7
20260901032022 69 146 0.0 0.0 0.00 0.00 0.00 47 1008.7
20260901031521 70 146 0.0 0.0 0.00 0.00 0.00 47 1008.6
20260901031020 70 146 0.0 0.0 0.00 0.00 0.00 46 1008.6
20260901030520 71 146 0.0 1.0 0.00 0.00 0.00 45 1008.6
20260901030027 72 146 0.0 4.0 0.00 0.00 0.00 44 1008.5
20260901025520 72 317 0.0 4.0 0.00 0.00 0.00 40 1008.5
20260901025020 72 134 0.0 2.0 0.00 0.00 0.00 43 1008.4
20260901024523 72 135 0.0 1.0 0.00 0.00 0.00 44 1008.5
20260901024020 72 135 0.0 1.0 0.00 0.00 0.00 44 1008.5
20260901023518 73 138 0.0 1.0 0.00 0.00 0.00 42 1008.5
20260901023019 74 135 0.0 1.0 0.00 0.00 0.00 41 1008.4
20260901022520 74 208 0.0 0.0 0.00 0.00 0.00 40 1008.5
20260901022019 75 209 0.0 0.0 0.00 0.00 0.00 39 1008.5
20260901021520 76 211 0.0 0.0 0.00 0.00 0.00 37 1008.5
20260901021017 78 211 0.0 0.0 0.00 0.00 0.00 36 1008.5
20260901020516 78 211 0.0 0.0 0.00 0.00 0.00 37 1008.7
20260901020016 79 211 0.0 0.0 0.00 0.00 0.00 34 1008.7
20260901015514 79 212 0.0 0.0 0.00 0.00 0.00 34 1008.7
20260901015014 80 211 0.0 0.0 0.00 0.00 0.00 35 1008.8
20260901014514 80 211 0.0 0.0 0.00 0.00 0.00 36 1008.8
20260901014014 80 211 0.0 0.0 0.00 0.00 0.00 33 1008.9
20260901013514 81 214 0.0 0.0 0.00 0.00 0.00 35 1008.9
20260901013014 82 214 0.0 0.0 0.00 0.00 0.00 32 1008.9
20260901012513 82 215 0.0 1.0 0.00 0.00 0.00 28 1008.9
20260901012012 83 215 0.0 1.0 0.00 0.00 0.00 27 1008.9
20260901011513 83 237 0.0 1.0 0.00 0.00 0.00 23 1008.8
20260901011011 83 201 0.0 1.0 0.00 0.00 0.00 24 1008.8
20260901010511 84 204 0.0 1.0 0.00 0.00 0.00 25 1008.8
20260901010017 84 204 0.0 1.0 0.00 0.00 0.00 23 1008.8
20260901005511 85 298 0.0 1.0 0.00 0.00 0.00 21 1008.7
20260901005009 85 205 0.0 1.0 0.00 0.00 0.00 22 1008.8
20260901004508 86 234 0.0 1.0 0.00 0.00 0.00 22 1009.0
20260901004007 86 288 0.0 2.0 0.00 0.00 0.00 19 1009.1
20260901003510 86 304 0.0 2.0 0.00 0.00 0.00 19 1009.1
20260901003012 87 290 0.0 4.0 0.00 0.00 0.00 18 1009.1
20260901002507 87 302 0.0 4.0 0.00 0.00 0.00 18 1009.3
20260901002005 87 307 0.0 2.0 0.00 0.00 0.00 17 1009.3
20260901001506 87 207 0.0 1.0 0.00 0.00 0.00 18 1009.5
20260901001004 87 207 0.0 3.0 0.00 0.00 0.00 18 1009.5
20260901000502 87 331 0.0 4.0 0.00 0.00 0.00 16 1009.6
20260901000006 87 321 1.0 4.0 0.00 0.00 0.00 15 1009.7
20260831235503 87 328 0.0 4.0 0.00 0.00 0.00 16 1009.8
20260831235100 87 285 0.0 3.0 0.00 0.00 0.00 16 1009.9
20260831234603 87 316 0.0 3.0 0.00 0.00 0.00 15 1009.9
20260831234059 88 290 0.0 4.0 0.00 0.00 0.00 15 1009.9
20260831233559 88 309 0.0 4.0 0.00 0.00 0.00 15 1009.9
20260831233101 88 237 0.0 3.0 0.00 0.00 0.00 16 1010.0
20260831232559 88 308 0.0 4.0 0.00 0.00 0.00 13 1010.0
20260831232100 89 314 1.0 4.0 0.00 0.00 0.00 13 1010.1
20260831231557 89 288 0.0 3.0 0.00 0.00 0.00 14 1010.1
20260831231055 89 308 0.0 5.0 0.00 0.00 0.00 15 1010.1
20260831230559 89 300 1.0 6.0 0.00 0.00 0.00 14 1010.2
20260831230054 90 328 1.0 4.0 0.00 0.00 0.00 13 1010.2
20260831225556 90 179 0.0 2.0 0.00 0.00 0.00 12 1010.2
20260831225053 90 297 0.0 3.0 0.00 0.00 0.00 13 1010.4
20260831224552 90 318 0.0 3.0 0.00 0.00 0.00 12 1010.5
20260831224054 90 276 0.0 2.0 0.00 0.00 0.00 11 1010.7
20260831223554 89 150 1.0 3.0 0.00 0.00 0.00 12 1010.7
20260831223056 89 127 0.0 3.0 0.00 0.00 0.00 10 1010.8
20260831222548 89 221 0.0 2.0 0.00 0.00 0.00 11 1010.9
20260831222048 89 328 0.0 4.0 0.00 0.00 0.00 11 1011.1
20260831221601 88 314 1.0 5.0 0.00 0.00 0.00 11 1011.1
20260831221046 89 307 2.0 4.0 0.00 0.00 0.00 11 1011.3
20260831220545 89 318 2.0 5.0 0.00 0.00 0.00 11 1011.5
20260831220044 90 314 2.0 4.0 0.00 0.00 0.00 11 1011.5
20260831215544 90 163 0.0 3.0 0.00 0.00 0.00 11 1011.7
20260831215042 89 136 0.0 2.0 0.00 0.00 0.00 11 1011.8
20260831214549 88 142 0.0 2.0 0.00 0.00 0.00 11 1011.9
20260831214041 88 136 1.0 2.0 0.00 0.00 0.00 13 1011.9
20260831213541 89 80 1.0 2.0 0.00 0.00 0.00 11 1012.0
20260831213040 89 136 0.0 2.0 0.00 0.00 0.00 11 1012.0
20260831212540 89 118 0.0 2.0 0.00 0.00 0.00 12 1012.1
20260831212038 89 150 0.0 3.0 0.00 0.00 0.00 13 1012.2
20260831211544 88 131 0.0 3.0 0.00 0.00 0.00 14 1012.3
20260831211034 88 307 0.0 3.0 0.00 0.00 0.00 12 1012.3
20260831210533 88 136 1.0 3.0 0.00 0.00 0.00 12 1012.5
20260831210034 87 144 0.0 4.0 0.00 0.00 0.00 13 1012.6
20260831205532 87 290 1.0 4.0 0.00 0.00 0.00 13 1012.7
20260831205032 86 143 0.0 4.0 0.00 0.00 0.00 12 1012.8
20260831204530 86 142 0.0 4.0 0.00 0.00 0.00 12 1013.0
20260831204032 86 332 1.0 3.0 0.00 0.00 0.00 12 1013.0
20260831203529 86 135 1.0 5.0 0.00 0.00 0.00 13 1013.1
20260831203039 86 205 2.0 5.0 0.00 0.00 0.00 13 1013.2
20260831202528 86 56 0.0 4.0 0.00 0.00 0.00 13 1013.2
20260831202029 86 153 1.0 5.0 0.00 0.00 0.00 13 1013.4
20260831201524 86 129 0.0 5.0 0.00 0.00 0.00 14 1013.4
20260831201022 85 131 0.0 3.0 0.00 0.00 0.00 15 1013.5
20260831200521 85 162 0.0 3.0 0.00 0.00 0.00 13 1013.5
20260831200026 85 125 0.0 5.0 0.00 0.00 0.00 15 1013.6
20260831195519 84 123 1.0 6.0 0.00 0.00 0.00 14 1013.7
20260831195017 83 133 0.0 2.0 0.00 0.00 0.00 16 1013.7
20260831194520 82 146 0.0 6.0 0.00 0.00 0.00 16 1013.9
20260831194015 81 349 0.0 6.0 0.00 0.00 0.00 18 1013.9
20260831193514 81 312 2.0 5.0 0.00 0.00 0.00 17 1013.9
20260831193016 82 318 0.0 3.0 0.00 0.00 0.00 19 1014.0
20260831192513 81 154 0.0 3.0 0.00 0.00 0.00 16 1014.1
20260831192015 81 313 1.0 3.0 0.00 0.00 0.00 15 1014.1
20260831191509 81 143 1.0 3.0 0.00 0.00 0.00 17 1014.2
20260831191009 80 37 0.0 3.0 0.00 0.00 0.00 17 1014.4
20260831190506 80 153 1.0 3.0 0.00 0.00 0.00 20 1014.5
20260831190009 79 133 0.0 3.0 0.00 0.00 0.00 21 1014.5
20260831185503 78 280 0.0 3.0 0.00 0.00 0.00 22 1014.7
20260831185003 77 318 0.0 3.0 0.00 0.00 0.00 20 1014.8
20260831184600 77 133 1.0 3.0 0.00 0.00 0.00 21 1014.9
20260831184100 76 150 0.0 3.0 0.00 0.00 0.00 21 1014.9
20260831183557 75 295 0.0 2.0 0.00 0.00 0.00 23 1015.0
20260831183100 74 307 0.0 3.0 0.00 0.00 0.00 23 1015.2
20260831182555 73 321 1.0 3.0 0.00 0.00 0.00 24 1015.3
20260831182053 73 332 0.0 2.0 0.00 0.00 0.00 26 1015.3
20260831181558 72 323 0.0 2.0 0.00 0.00 0.00 26 1015.4
20260831181049 71 148 0.0 3.0 0.00 0.00 0.00 27 1015.5
20260831180551 71 317 1.0 3.0 0.00 0.00 0.00 27 1015.6
20260831180056 70 124 0.0 4.0 0.00 0.00 0.00 28 1015.7
20260831175545 70 322 0.0 4.0 0.00 0.00 0.00 29 1015.7
20260831175046 69 330 1.0 4.0 0.00 0.00 0.00 28 1015.8
20260831174543 69 322 2.0 5.0 0.00 0.00 0.00 29 1015.8
20260831174043 68 319 3.0 5.0 0.00 0.00 0.00 30 1015.9
20260831173541 68 316 1.0 4.0 0.00 0.00 0.00 32 1015.9
20260831173038 68 314 1.0 4.0 0.00 0.00 0.00 32 1016.0
20260831172536 67 324 1.0 4.0 0.00 0.00 0.00 31 1016.0
20260831172035 67 339 2.0 4.0 0.00 0.00 0.00 32 1016.0
20260831171533 67 146 0.0 4.0 0.00 0.00 0.00 33 1016.0
20260831171032 66 157 1.0 4.0 0.00 0.00 0.00 33 1016.0
20260831170532 66 330 1.0 4.0 0.00 0.00 0.00 34 1016.1
20260831170031 66 326 0.0 4.0 0.00 0.00 0.00 34 1016.1
20260831165529 66 338 1.0 3.0 0.00 0.00 0.00 36 1016.1
20260831165027 65 322 0.0 3.0 0.00 0.00 0.00 36 1016.1
20260831164527 65 139 1.0 3.0 0.00 0.00 0.00 37 1016.1
20260831164025 65 289 0.0 2.0 0.00 0.00 0.00 39 1016.2
20260831163524 64 300 0.0 5.0 0.00 0.00 0.00 39 1016.3
20260831163024 63 316 1.0 6.0 0.00 0.00 0.00 39 1016.2
20260831162525 63 303 2.0 6.0 0.00 0.00 0.00 40 1016.3
20260831162019 62 321 1.0 6.0 0.00 0.00 0.00 40 1016.4
20260831161522 62 325 0.0 6.0 0.00 0.00 0.00 42 1016.3
20260831161021 62 321 1.0 5.0 0.00 0.00 0.00 42 1016.3
20260831160516 61 323 1.0 5.0 0.00 0.00 0.00 43 1016.2
20260831160015 61 287 1.0 4.0 0.00 0.00 0.00 42 1016.3
20260831155514 61 297 1.0 4.0 0.00 0.00 0.00 43 1016.3
20260831155016 60 325 1.0 4.0 0.00 0.00 0.00 42 1016.4
20260831154512 60 301 1.0 4.0 0.00 0.00 0.00 44 1016.4
20260831154010 60 323 0.0 2.0 0.00 0.00 0.00 44 1016.4
20260831153512 59 324 0.0 2.0 0.00 0.00 0.00 44 1016.4
20260831153009 59 319 0.0 2.0 0.00 0.00 0.00 43 1016.5
20260831152508 58 318 1.0 3.0 0.00 0.00 0.00 46 1016.3
20260831152006 58 341 1.0 3.0 0.00 0.00 0.00 46 1016.3
20260831151505 58 341 1.0 3.0 0.00 0.00 0.00 46 1016.3
20260831151004 57 324 0.0 2.0 0.00 0.00 0.00 47 1016.3
20260831150505 57 339 0.0 2.0 0.00 0.00 0.00 48 1016.3
20260831150002 57 319 1.0 2.0 0.00 0.00 0.00 49 1016.2
20260831145502 57 314 0.0 2.0 0.00 0.00 0.00 49 1016.2
20260831145001 56 301 0.0 2.0 0.00 0.00 0.00 49 1016.3
20260831144606 56 307 0.0 2.0 0.00 0.00 0.00 49 1016.2
20260831144100 57 307 0.0 2.0 0.00 0.00 0.00 47 1016.1
20260831143559 57 308 1.0 2.0 0.00 0.00 0.00 47 1016.0
20260831143058 56 299 0.0 1.0 0.00 0.00 0.00 41 1016.0
20260831142557 56 299 0.0 1.0 0.00 0.00 0.00 41 1015.9
20260831142055 56 300 0.0 1.0 0.00 0.00 0.00 42 1015.9
20260831141557 55 299 0.0 1.0 0.00 0.00 0.00 41 1015.9
20260831141057 55 300 0.0 0.0 0.00 0.00 0.00 43 1016.0
20260831140553 54 70 0.0 2.0 0.00 0.00 0.00 43 1015.9
20260831140054 54 70 0.0 2.0 0.00 0.00 0.00 43 1015.9
20260831135557 53 70 0.0 1.0 0.00 0.00 0.00 43 1015.9
20260831135053 53 63 0.0 1.0 0.00 0.00 0.00 45 1015.8
20260831134555 53 49 0.0 1.0 0.00 0.00 0.00 47 1015.9
20260831134052 53 49 0.0 2.0 0.00 0.00 0.00 45 1015.8
20260831133554 53 278 0.0 2.0 0.00 0.00 0.00 47 1015.9
20260831133052 52 135 0.0 1.0 0.00 0.00 0.00 48 1015.8
20260831132552 52 120 0.0 1.0 0.00 0.00 0.00 52 1015.8
20260831132053 52 120 0.0 1.0 0.00 0.00 0.00 56 1015.7
20260831131554 52 120 0.0 1.0 0.00 0.00 0.00 55 1015.7
20260831131052 51 121 0.0 1.0 0.00 0.00 0.00 54 1015.7
20260831130553 51 124 0.0 0.0 0.00 0.00 0.00 55 1015.7
20260831130150 51 124 0.0 1.0 0.00 0.00 0.00 55 1015.7
20260831125550 50 124 0.0 1.0 0.00 0.00 0.00 60 1015.7
20260831125050 50 124 0.0 1.0 0.00 0.00 0.00 57 1015.8
20260831124552 49 124 0.0 1.0 0.00 0.00 0.00 61 1015.7
20260831124048 49 124 0.0 0.0 0.00 0.00 0.00 66 1015.7
20260831123548 49 124 0.0 0.0 0.00 0.00 0.00 67 1015.7
20260831123048 49 124 0.0 0.0 0.00 0.00 0.00 74 1015.7
20260831122553 49 124 0.0 0.0 0.00 0.00 0.00 72 1015.7
20260831122048 49 124 0.0 1.0 0.00 0.00 0.00 73 1015.8
20260831121546 50 124 0.0 1.0 0.00 0.00 0.00 72 1015.7
20260831121046 50 94 0.0 1.0 0.00 0.00 0.00 68 1015.7
20260831120545 50 93 0.0 1.0 0.00 0.00 0.00 67 1015.7
20260831120046 50 75 0.0 1.0 0.00 0.00 0.00 69 1015.7
20260831115544 49 77 0.0 1.0 0.00 0.00 0.00 70 1015.7
20260831115047 49 77 0.0 0.0 0.00 0.00 0.00 72 1015.8
20260831114544 50 77 0.0 1.0 0.00 0.00 0.00 72 1015.8
20260831114043 50 77 0.0 1.0 0.00 0.00 0.00 71 1015.8
20260831113543 50 77 0.0 1.0 0.00 0.00 0.00 71 1015.7
20260831113045 50 75 0.0 1.0 0.00 0.00 0.00 72 1015.8
20260831112542 50 58 0.0 0.0 0.00 0.00 0.00 73 1015.7
20260831112040 50 58 0.0 0.0 0.00 0.00 0.00 71 1015.8
20260831111541 50 58 0.0 0.0 0.00 0.00 0.00 70 1015.8
20260831111039 50 58 0.0 0.0 0.00 0.00 0.00 68 1015.8
20260831110540 50 58 0.0 0.0 0.00 0.00 0.00 68 1015.8
20260831110043 50 58 0.0 0.0 0.00 0.00 0.00 68 1015.8
20260831105541 50 58 0.0 0.0 0.00 0.00 0.00 67 1015.8
20260831105039 51 58 0.0 0.0 0.00 0.00 0.00 67 1015.8
20260831104539 51 58 0.0 0.0 0.00 0.00 0.00 64 1015.8
20260831104035 51 60 0.0 0.0 0.00 0.00 0.00 62 1015.8
20260831103535 50 58 0.0 0.0 0.00 0.00 0.00 65 1015.8
20260831103035 50 58 0.0 0.0 0.00 0.00 0.00 68 1015.8
20260831102534 51 60 0.0 1.0 0.00 0.00 0.00 67 1015.8
20260831102034 51 58 0.0 1.0 0.00 0.00 0.00 63 1015.8
20260831101541 52 58 0.0 1.0 0.00 0.00 0.00 59 1015.8
20260831101034 52 58 0.0 1.0 0.00 0.00 0.00 53 1015.7
20260831100535 52 58 0.0 1.0 0.00 0.00 0.00 55 1015.7
20260831100032 53 58 0.0 0.0 0.00 0.00 0.00 51 1015.7
20260831095531 53 58 0.0 0.0 0.00 0.00 0.00 50 1015.7
20260831095033 53 58 0.0 0.0 0.00 0.00 0.00 45 1015.7
20260831094531 53 58 0.0 1.0 0.00 0.00 0.00 44 1015.7
20260831094030 53 58 0.0 1.0 0.00 0.00 0.00 44 1015.7
20260831093530 53 70 0.0 1.0 0.00 0.00 0.00 44 1015.7
20260831093032 53 70 0.0 1.0 0.00 0.00 0.00 44 1015.7
20260831092528 53 70 0.0 1.0 0.00 0.00 0.00 45 1015.7
20260831092028 52 70 0.0 1.0 0.00 0.00 0.00 48 1015.7
20260831091544 52 70 0.0 2.0 0.00 0.00 0.00 51 1015.7
20260831091030 51 71 0.0 2.0 0.00 0.00 0.00 57 1015.7
20260831090528 51 130 0.0 1.0 0.00 0.00 0.00 59 1015.7
20260831090029 51 129 0.0 0.0 0.00 0.00 0.00 62 1015.7
20260831085526 51 129 0.0 1.0 0.00 0.00 0.00 64 1015.7
20260831085025 51 129 0.0 1.0 0.00 0.00 0.00 66 1015.7
20260831084526 50 122 0.0 1.0 0.00 0.00 0.00 68 1015.6
20260831084024 51 120 0.0 1.0 0.00 0.00 0.00 68 1015.7
20260831083523 51 139 0.0 1.0 0.00 0.00 0.00 70 1015.6
20260831083022 51 139 0.0 1.0 0.00 0.00 0.00 69 1015.5
20260831082522 51 139 0.0 0.0 0.00 0.00 0.00 68 1015.5
20260831082022 51 139 0.0 1.0 0.00 0.00 0.00 68 1015.6
20260831081533 51 139 0.0 1.0 0.00 0.00 0.00 70 1015.5
20260831081020 52 138 0.0 1.0 0.00 0.00 0.00 70 1015.5
20260831080519 52 138 0.0 1.0 0.00 0.00 0.00 68 1015.5
20260831080045 52 138 0.0 1.0 0.00 0.00 0.00 64 1015.5
20260831075517 52 138 0.0 2.0 0.00 0.00 0.00 64 1015.5
20260831075016 53 138 0.0 2.0 0.00 0.00 0.00 62 1015.5
20260831074516 53 301 0.0 1.0 0.00 0.00 0.00 62 1015.5
20260831074018 53 300 0.0 1.0 0.00 0.00 0.00 60 1015.5
20260831073515 53 300 0.0 3.0 0.00 0.00 0.00 61 1015.4
20260831073034 52 300 1.0 3.0 0.00 0.00 0.00 58 1015.5
20260831072512 52 146 0.0 2.0 0.00 0.00 0.00 58 1015.5
20260831072011 52 146 1.0 2.0 0.00 0.00 0.00 63 1015.4
20260831071510 53 138 0.0 2.0 0.00 0.00 0.00 61 1015.4
20260831071008 54 138 0.0 2.0 0.00 0.00 0.00 60 1015.5
20260831070511 54 137 0.0 1.0 0.00 0.00 0.00 59 1015.6
20260831070007 55 125 0.0 0.0 0.00 0.00 0.00 56 1015.6
20260831065506 55 125 0.0 1.0 0.00 0.00 0.00 55 1015.7
20260831065005 55 125 0.0 1.0 0.00 0.00 0.00 50 1015.6
20260831064505 55 125 0.0 1.0 0.00 0.00 0.00 47 1015.7
20260831064003 55 125 0.0 1.0 0.00 0.00 0.00 44 1015.7
20260831063502 54 125 0.0 1.0 0.00 0.00 0.00 48 1015.6
20260831063001 54 125 0.0 0.0 0.00 0.00 0.00 54 1015.6
20260831062601 54 125 0.0 1.0 0.00 0.00 0.00 52 1015.6
20260831062100 55 125 0.0 1.0 0.00 0.00 0.00 53 1015.6
20260831061558 55 127 0.0 1.0 0.00 0.00 0.00 54 1015.6
20260831061056 55 127 0.0 1.0 0.00 0.00 0.00 55 1015.6
20260831060554 54 127 0.0 1.0 0.00 0.00 0.00 57 1015.6
20260831060055 54 127 0.0 1.0 0.00 0.00 0.00 59 1015.6
20260831055553 54 127 0.0 1.0 0.00 0.00 0.00 56 1015.6
20260831055053 55 127 0.0 1.0 0.00 0.00 0.00 55 1015.7
20260831054553 55 127 0.0 1.0 0.00 0.00 0.00 56 1015.7
20260831054054 55 127 0.0 1.0 0.00 0.00 0.00 56 1015.7
20260831053552 56 127 0.0 1.0 0.00 0.00 0.00 55 1015.7
20260831053052 56 127 0.0 1.0 0.00 0.00 0.00 55 1015.8
20260831052552 56 127 0.0 1.0 0.00 0.00 0.00 54 1015.8
20260831052054 56 127 0.0 1.0 0.00 0.00 0.00 56 1015.8
20260831051551 56 127 0.0 2.0 0.00 0.00 0.00 56 1015.8
20260831051050 56 127 1.0 2.0 0.00 0.00 0.00 53 1015.8
20260831050552 57 148 0.0 1.0 0.00 0.00 0.00 53 1015.7
20260831050050 57 148 0.0 1.0 0.00 0.00 0.00 52 1015.7